Tracking 18980 objects as of 18-Feb-2018
HD Live streaming from Space Station
objects crossing your sky now

SL-16 DEB

Track SL-16 DEB now!
10-day predictions


NORAD ID: 23094
Int'l Code: 1994-023F
Perigee: 845.3 km
Apogee: 1,142.3 km
Inclination: 71.0 °
Period: 104.8 minutes
Semi major axis: 7364 km
RCS: 0.0946 m2 (small)
Launch date: April 23, 1994
Source: Commonwealth of Independent States (former USSR) (CIS)
Launch site: TYURATAM MISSILE AND SPACE COMPLEX (TTMTR)

Note: This is SATELLITE DEBRIS
aabbcc
Your satellite tracking list
Your tracking list is empty




NASA's NSSDC Master Catalog

Two Line Element Set (TLE):
1 23094U 94023F   18048.95990429 -.00000008 +00000-0 +32515-4 0  9993
2 23094 070.9851 248.2751 0201632 356.1550 107.6714 13.73603189193862
Source of the keplerian elements: AFSPC